When you browse on this site, cookies collect data to enhance your experience and personalize the content and advertising you see.
Visit our Privacy Policy to learn more. By continuing to use the site, you agree to this use of cookies and data.
  • In United Kingdom
  • List of Countries
  • For 7 days
  • Water Temperature
  • Weather Map
  • Weather Widgets
  • user-avatar
    Login

    Hourly Weather Saint George's

    Today, 7 December, Saturday

    Time Temperature Precipitation Wind Pressure Humidity
    00:00 +28°C° 0.1 mm 6 mps 752 mmHg 82%
    01:00 +28°C° 0.1 mm 6 mps 752 mmHg 81%
    02:00 +28°C° 0.1 mm 6 mps 751 mmHg 80%
    03:00 +28°C° 0.1 mm 6 mps 751 mmHg 81%
    04:00 +28°C° 0.1 mm 6 mps 751 mmHg 82%
    05:00 +27°C° 0.1 mm 6 mps 751 mmHg 83%
    06:00 +28°C° 0.1 mm 6 mps 752 mmHg 81%
    07:00 +28°C° 0.1 mm 6 mps 752 mmHg 80%
    08:00 +29°C° 0.1 mm 6 mps 752 mmHg 78%
    09:00 +29°C° 0.1 mm 6 mps 753 mmHg 76%
    10:00 +29°C° 0.1 mm 6 mps 753 mmHg 74%
    11:00 +30°C° 0.1 mm 6 mps 753 mmHg 72%
    12:00 +30°C° 0 mm 6 mps 752 mmHg 72%
    13:00 +30°C° 0 mm 6 mps 752 mmHg 72%
    14:00 +30°C° 0 mm 6 mps 751 mmHg 72%
    15:00 +29°C° 0 mm 6 mps 751 mmHg 74%
    16:00 +29°C° 0 mm 6 mps 751 mmHg 77%
    17:00 +28°C° 0 mm 6 mps 750 mmHg 79%
    18:00 +28°C° 0 mm 6 mps 751 mmHg 79%
    19:00 +28°C° 0 mm 6 mps 751 mmHg 80%
    20:00 +28°C° 0 mm 6 mps 751 mmHg 81%
    21:00 +28°C° 0.2 mm 6 mps 751 mmHg 81%
    22:00 +28°C° 0.2 mm 7 mps 751 mmHg 81%
    23:00 +28°C° 0.2 mm 7 mps 752 mmHg 81%

    Tomorrow, 8 December, Sunday

    Time Temperature Precipitation Wind Pressure Humidity
    00:00 +28°C° 0.1 mm 7 mps 751 mmHg 79%
    01:00 +28°C° 0.1 mm 7 mps 751 mmHg 78%
    02:00 +28°C° 0.1 mm 7 mps 750 mmHg 76%
    03:00 +28°C° 0 mm 7 mps 750 mmHg 77%
    04:00 +28°C° 0 mm 6 mps 750 mmHg 78%
    05:00 +27°C° 0 mm 6 mps 750 mmHg 79%
    06:00 +28°C° 0 mm 6 mps 751 mmHg 78%
    07:00 +28°C° 0 mm 6 mps 751 mmHg 77%
    08:00 +28°C° 0 mm 6 mps 752 mmHg 76%
    09:00 +29°C° 0 mm 6 mps 752 mmHg 75%
    10:00 +29°C° 0 mm 6 mps 752 mmHg 73%
    11:00 +30°C° 0 mm 6 mps 752 mmHg 72%
    12:00 +29°C° 0.3 mm 6 mps 752 mmHg 73%
    13:00 +29°C° 0.3 mm 6 mps 751 mmHg 74%
    14:00 +29°C° 0.3 mm 6 mps 750 mmHg 75%
    15:00 +29°C° 0.1 mm 6 mps 750 mmHg 76%
    16:00 +28°C° 0.1 mm 7 mps 750 mmHg 76%
    17:00 +28°C° 0.1 mm 7 mps 750 mmHg 76%
    18:00 +28°C° 0 mm 7 mps 750 mmHg 76%
    19:00 +28°C° 0 mm 7 mps 751 mmHg 77%
    20:00 +27°C° 0 mm 7 mps 751 mmHg 77%
    21:00 +27°C° 0 mm 7 mps 751 mmHg 78%
    22:00 +27°C° 0 mm 7 mps 752 mmHg 78%
    23:00 +27°C° 0 mm 7 mps 752 mmHg 79%

    Day after tomorrow, 9 December, Monday

    Time Temperature Precipitation Wind Pressure Humidity
    00:00 +27°C° 0 mm 7 mps 752 mmHg 79%
    01:00 +27°C° 0 mm 7 mps 751 mmHg 78%
    02:00 +27°C° 0 mm 7 mps 751 mmHg 78%
    03:00 +27°C° 0 mm 7 mps 751 mmHg 78%
    04:00 +27°C° 0 mm 7 mps 751 mmHg 78%
    05:00 +27°C° 0 mm 7 mps 751 mmHg 78%
    06:00 +28°C° 0.1 mm 8 mps 751 mmHg 77%
    07:00 +28°C° 0.1 mm 8 mps 752 mmHg 77%
    08:00 +28°C° 0.1 mm 8 mps 752 mmHg 77%
    09:00 +29°C° 0 mm 8 mps 752 mmHg 74%
    10:00 +29°C° 0 mm 8 mps 752 mmHg 71%
    11:00 +31°C° 0 mm 8 mps 752 mmHg 69%
    12:00 +31°C° 0.1 mm 8 mps 752 mmHg 69%
    13:00 +30°C° 0.1 mm 7 mps 751 mmHg 70%
    14:00 +30°C° 0.1 mm 7 mps 751 mmHg 71%
    15:00 +29°C° 0.1 mm 7 mps 751 mmHg 72%
    16:00 +29°C° 0.1 mm 8 mps 750 mmHg 73%
    17:00 +29°C° 0.1 mm 8 mps 750 mmHg 75%
    18:00 +28°C° 0.1 mm 8 mps 751 mmHg 76%
    19:00 +28°C° 0.1 mm 8 mps 751 mmHg 78%
    20:00 +28°C° 0.1 mm 8 mps 751 mmHg 79%
    21:00 +28°C° 0.1 mm 8 mps 752 mmHg 79%
    22:00 +28°C° 0.1 mm 7 mps 752 mmHg 79%
    23:00 +28°C° 0.1 mm 7 mps 752 mmHg 79%

    10 December, Tuesday

    Time Temperature Precipitation Wind Pressure Humidity
    00:00 +27°C° 0 mm 7 mps 751 mmHg 79%
    01:00 +27°C° 0 mm 7 mps 751 mmHg 79%
    02:00 +27°C° 0 mm 7 mps 751 mmHg 79%
    03:00 +27°C° 0 mm 7 mps 751 mmHg 76%
    04:00 +27°C° 0 mm 7 mps 751 mmHg 73%
    05:00 +27°C° 0 mm 7 mps 751 mmHg 70%
    06:00 +28°C° 0 mm 7 mps 751 mmHg 70%
    07:00 +28°C° 0 mm 7 mps 752 mmHg 69%
    08:00 +28°C° 0 mm 7 mps 752 mmHg 69%
    09:00 +29°C° 0 mm 7 mps 752 mmHg 68%
    10:00 +29°C° 0 mm 7 mps 752 mmHg 67%
    11:00 +30°C° 0 mm 7 mps 753 mmHg 66%
    12:00 +30°C° 0 mm 7 mps 752 mmHg 67%
    13:00 +30°C° 0 mm 7 mps 751 mmHg 68%
    14:00 +29°C° 0 mm 7 mps 751 mmHg 69%
    15:00 +29°C° 0 mm 7 mps 750 mmHg 71%
    16:00 +29°C° 0 mm 7 mps 750 mmHg 74%
    17:00 +28°C° 0 mm 7 mps 750 mmHg 76%
    18:00 +28°C° 0 mm 7 mps 750 mmHg 77%
    19:00 +28°C° 0 mm 7 mps 751 mmHg 77%
    20:00 +28°C° 0 mm 8 mps 751 mmHg 78%
    21:00 +28°C° 0 mm 8 mps 751 mmHg 77%
    22:00 +28°C° 0 mm 8 mps 751 mmHg 76%
    23:00 +28°C° 0 mm 7 mps 752 mmHg 75%

    11 December, Wednesday

    Time Temperature Precipitation Wind Pressure Humidity
    00:00 +28°C° 0 mm 7 mps 751 mmHg 75%
    01:00 +28°C° 0 mm 7 mps 751 mmHg 75%
    02:00 +28°C° 0 mm 7 mps 751 mmHg 75%
    03:00 +28°C° 0.1 mm 7 mps 750 mmHg 76%
    04:00 +28°C° 0.1 mm 8 mps 750 mmHg 78%
    05:00 +28°C° 0.1 mm 8 mps 750 mmHg 79%
    06:00 +28°C° 0.2 mm 8 mps 751 mmHg 79%
    07:00 +28°C° 0.2 mm 8 mps 751 mmHg 79%
    08:00 +28°C° 0.2 mm 8 mps 752 mmHg 78%
    09:00 +28°C° 0.3 mm 8 mps 752 mmHg 79%
    10:00 +28°C° 0.3 mm 8 mps 752 mmHg 79%
    11:00 +28°C° 0.3 mm 8 mps 752 mmHg 80%
    12:00 +29°C° 0.2 mm 7 mps 751 mmHg 78%
    13:00 +29°C° 0.2 mm 7 mps 751 mmHg 76%
    14:00 +29°C° 0.2 mm 7 mps 750 mmHg 73%
    15:00 +29°C° 0.2 mm 7 mps 750 mmHg 74%
    16:00 +29°C° 0.2 mm 7 mps 750 mmHg 75%
    17:00 +28°C° 0.2 mm 7 mps 749 mmHg 76%
    18:00 +28°C° 0.1 mm 7 mps 750 mmHg 77%
    19:00 +28°C° 0.1 mm 8 mps 750 mmHg 78%
    20:00 +28°C° 0.1 mm 8 mps 750 mmHg 79%
    21:00 +28°C° 0.1 mm 8 mps 751 mmHg 79%
    22:00 +28°C° 0.1 mm 8 mps 751 mmHg 79%
    23:00 +28°C° 0.1 mm 8 mps 751 mmHg 79%

    12 December, Thursday

    Time Temperature Precipitation Wind Pressure Humidity
    00:00 +27°C° 0.2 mm 7 mps 750 mmHg 80%
    01:00 +27°C° 0.2 mm 7 mps 750 mmHg 81%
    02:00 +27°C° 0.2 mm 7 mps 749 mmHg 82%
    03:00 +27°C° 0.1 mm 7 mps 749 mmHg 81%
    04:00 +27°C° 0.1 mm 6 mps 749 mmHg 80%
    05:00 +27°C° 0.1 mm 6 mps 749 mmHg 80%
    06:00 +27°C° 0.2 mm 6 mps 750 mmHg 79%
    07:00 +27°C° 0.2 mm 6 mps 750 mmHg 78%
    08:00 +28°C° 0.2 mm 6 mps 751 mmHg 77%
    09:00 +28°C° 0.1 mm 6 mps 751 mmHg 74%
    10:00 +29°C° 0.1 mm 6 mps 751 mmHg 72%
    11:00 +29°C° 0.1 mm 6 mps 751 mmHg 69%
    12:00 +29°C° 0 mm 6 mps 751 mmHg 70%
    13:00 +29°C° 0 mm 6 mps 750 mmHg 70%
    14:00 +29°C° 0 mm 5 mps 749 mmHg 70%
    15:00 +29°C° 0.1 mm 5 mps 749 mmHg 72%
    16:00 +28°C° 0.1 mm 5 mps 749 mmHg 74%
    17:00 +28°C° 0.1 mm 5 mps 748 mmHg 76%
    18:00 +27°C° 0 mm 6 mps 749 mmHg 78%
    19:00 +27°C° 0 mm 6 mps 749 mmHg 79%
    20:00 +27°C° 0 mm 6 mps 750 mmHg 80%
    21:00 +27°C° 0 mm 6 mps 750 mmHg 81%
    22:00 +27°C° 0 mm 6 mps 750 mmHg 81%
    23:00 +27°C° 0 mm 6 mps 750 mmHg 81%
    Show more